SCP
0 0 0 0 0 0 0 0 0 0 0 0 0 0 0 0 0 0 0 0 0 0 0 0 0 0 0 0 1 1 1 1 1 0 1 1 1 1 1 1 0 1 1
0 0 0 0 0 0 0 0 0 0 0 0 0 0 0 0 0 0 0 0 0 0 0 0 0 0 0 0 0 1 1 1 1 1 1 1 1 1 0 0 1 0 1
0 0 0 0 0 0 0 0 0 0 0 0 0 0 0 0 0 0 0 0 0 0 0 0 0 0 0 0 0 0 0 1 1 1 1 1 1 1 1 0 0 1 1
0 0 0 0 0 0 0 0 0 0 0 0 0 0 0 0 0 0 0 0 0 0 0 0 0 0 0 0 0 0 0 0 0 0 0 0 1 1 1 1 1 1 1
0 0 0 0 0 0 0 0 0 0 0 0 0 0 0 0 0 0 0 0 0 0 0 0 0 0 0 0 0 0 0 0 0 0 0 0 0 0 0 0 1 1 1
0 0 0 0 0 0 0 0 0 0 0 0 0 0 0 0 0 0 0 0 0 0 0 0 0 0 0 0 0 0 0 0 0 0 0 0 0 0 0 0 1 1 1
0 0 0 0 0 0 0 0 0 0 0 0 0 0 0 0 0 0 0 0 0 0 0 0 0 0 0 0 0 0 0 0 0 0 0 0 0 0 0 0 0 0 1
0 0 0 0 0 0 0 0 0 0 0 0 0 0 0 0 0 0 0 0 0 0 0 0 0 0 0 0 0 0 0 0 0 0 0 0 0 0 0 0 0 0 1
0 0 0 0 0 0 0 0 0 0 0 0 0 0 0 0 0 0 0 0 0 0 0 0 0 0 0 0 0 0 0 0 0 0 0 0 0 0 0 0 0 0 0
0 0 0 0 0 0 0 0 0 0 0 0 0 0 0 0 0 0 0 0 0 0 0 0 0 0 0 0 0 0 0 0 0 0 0 0 0 0 0 0 0 0 0
0 0 0 0 0 0 0 0 0 0 0 0 0 0 0 0 0 0 0 0 0 0 0 0 0 0 0 0 0 0 0 0 0 0 0 0 0 0 0 0 0 0 0
0 0 0 0 0 0 0 0 0 0 0 0 0 0 0 0 0 0 0 0 0 0 0 0 0 0 0 0 0 0 0 0 0 0 0 0 -0 -0 -0 0 0 0 0
0 0 0 0 0 0 0 0 0 0 0 0 0 0 0 0 0 0 0 0 0 0 0 0 0 0 0 0 0 0 0 0 0 0 0 0 -0 -0 -0 0 0 0 0
0 0 0 0 0 0 0 0 0 0 0 0 0 0 0 0 0 0 0 0 0 0 0 0 0 0 0 0 0 0 0 0 0 0 0 0 0 -0 -0 0 0 0 0
0 0 0 0 0 0 0 0 0 0 0 0 0 0 0 0 0 0 0 0 0 0 0 0 0 0 0 0 0 0 0 0 0 0 0 0 0 -0 0 -0 -0 0 0
0 0 0 0 0 0 0 0 0 0 0 0 0 0 0 0 0 0 0 0 0 0 0 0 0 0 0 0 0 0 0 0 0 0 0 -0 0 0 0 -0 0 -0 -0
0 0 0 0 0 0 0 0 0 0 0 0 0 0 0 0 0 0 0 0 0 0 0 0 0 0 0 0 0 0 0 0 0 0 0 0 0 -0 -0 0 0 0 0
0 0 0 0 0 0 0 0 0 0 0 0 0 0 0 0 0 0 0 0 0 0 0 0 0 0 0 0 0 0 0 0 0 0 -0 0 0 0 0 -0 0 0 0
0 0 0 0 0 0 0 0 0 0 0 0 0 0 0 0 0 0 0 0 0 0 0 0 0 0 0 0 0 0 0 0 0 0 0 0 -0 -0 0 0 0 0 0
0 0 0 0 0 0 0 0 0 0 0 0 0 0 0 0 0 0 0 0 0 0 0 0 0 0 0 0 0 0 0 0 0 0 0 0 0 0 -0 0 0 0 0
0 0 0 0 0 0 0 0 0 0 0 0 0 0 0 0 0 0 0 0 0 0 0 0 0 0 0 0 0 0 0 0 0 0 0 0 0 0 0 0 0 0 0
0 0 0 0 0 0 0 0 0 0 0 0 0 0 0 0 0 0 0 0 0 0 0 0 0 0 0 0 0 0 0 0 0 0 0 0 0 -0 0 0 0 0 0
0 0 0 0 0 0 0 0 0 0 0 0 0 0 0 0 0 0 0 0 0 0 0 0 0 0 0 0 0 0 0 0 0 0 0 0 0 0 0 0 0 0 0
0 0 0 0 0 0 0 0 0 0 0 0 0 0 0 0 0 0 0 0 0 0 0 0 0 0 0 0 0 0 0 0 0 0 0 0 0 0 0 0 0 0 0
0 0 0 0 0 0 0 0 0 0 0 0 0 0 0 0 0 0 0 0 0 0 0 0 0 0 0 0 0 0 0 0 0 0 0 0 0 0 0 0 0 0 0
0 0 0 0 0 0 0 0 0 0 0 0 0 0 0 0 0 0 0 0 0 0 0 0 0 0 0 0 0 0 0 0 0 0 0 0 0 0 0 0 0 0 0
Wind_Speed_500mb
14 17 24 24 23 27 32 30 29 21 12 14 17 17 17 11 7 4 5 7 11 17 23 30 34 33 29 29 33 34 41 47 48 47 46 46 45 44 45 45 47 44 43
19 20 24 24 25 25 33 34 33 23 18 15 16 17 18 12 10 8 5 5 11 21 26 33 31 27 28 28 29 34 36 39 44 47 47 46 47 49 48 47 47 49 46
22 22 24 26 26 28 32 35 25 22 18 15 19 19 7 0 6 5 4 11 13 15 24 27 25 21 20 20 25 28 32 35 37 41 45 44 46 50 53 53 51 48 50
22 21 25 23 25 32 35 29 27 21 16 15 12 9 10 8 4 1 6 12 17 21 26 25 21 22 23 23 25 28 29 31 37 42 43 45 49 49 52 54 55 53 51
26 28 27 27 28 34 33 31 27 26 20 14 2 17 17 7 1 3 7 10 17 24 27 26 22 22 23 23 23 25 25 29 32 38 45 53 53 51 55 61 58 58 54
28 32 33 29 29 31 32 30 28 24 22 12 13 20 14 6 2 5 9 14 18 21 24 21 22 20 22 20 21 18 17 23 28 36 39 46 55 60 54 52 57 60 62
25 31 36 34 30 29 32 33 30 27 21 11 12 15 11 7 4 9 15 19 20 22 24 22 19 17 17 17 17 6 12 12 17 25 34 41 33 56 54 54 54 58 62
22 27 34 36 30 25 25 33 31 30 30 25 15 3 8 14 16 8 22 28 26 26 24 19 15 15 15 16 16 14 13 12 19 18 29 25 33 39 47 45 48 52 56
19 24 32 36 30 23 22 27 32 31 28 25 25 18 8 10 33 5 15 30 30 29 24 20 16 14 16 18 16 15 13 13 20 26 22 23 19 25 39 37 41 41 47
18 19 28 33 29 22 21 23 26 27 29 26 19 18 14 17 12 22 29 29 27 28 25 19 17 17 19 18 16 15 17 20 20 20 18 26 28 14 16 21 37 38 27
18 18 24 28 26 21 22 22 21 22 24 28 25 23 23 20 15 28 36 47 27 24 20 23 18 16 17 13 12 14 18 20 20 20 21 14 20 31 9 29 35 32 32
20 22 26 25 27 26 18 18 23 20 22 22 23 25 27 24 25 27 35 40 46 29 23 18 17 17 16 13 13 17 16 16 22 24 21 20 18 17 28 2 9 31 38
28 26 30 27 25 27 22 20 23 27 25 22 23 26 28 25 26 28 34 40 45 40 28 19 23 21 18 16 18 18 16 20 21 22 20 23 20 21 22 20 18 19 16
22 24 29 26 25 26 25 19 22 29 31 26 26 31 32 26 29 29 32 37 46 43 38 35 22 26 28 25 23 24 20 20 23 19 18 18 16 15 17 18 20 23 25
22 25 26 27 29 29 28 28 30 31 32 31 32 34 37 33 34 36 37 35 36 45 52 43 34 30 26 29 24 22 24 23 22 21 21 18 20 15 14 15 23 26 25
23 26 27 29 31 33 34 34 35 35 40 39 41 45 46 46 46 42 40 41 42 42 50 47 41 37 34 31 26 29 27 25 24 23 24 25 25 25 24 24 24 26 25
25 29 29 30 31 32 31 36 39 41 43 44 44 48 52 51 55 54 51 48 50 50 55 54 43 37 35 31 29 28 29 27 26 23 23 22 21 21 20 21 20 23 25
30 33 33 34 35 36 36 39 45 47 50 53 56 57 60 58 60 60 59 56 56 55 59 62 54 44 38 34 34 31 25 31 30 24 23 23 23 23 23 25 25 24 20
34 35 37 39 39 41 43 44 50 55 57 60 63 63 67 67 70 70 70 68 61 58 58 62 61 52 47 38 35 33 31 28 30 30 28 26 24 24 24 25 25 24 22
38 39 40 43 44 45 46 50 55 64 67 66 61 62 65 72 89 86 78 80 70 63 62 61 62 57 52 44 38 37 35 30 25 21 22 27 28 28 32 33 32 32 31
42 44 48 49 49 49 49 49 54 57 61 59 58 58 54 60 61 57 61 70 64 59 61 65 62 62 58 49 43 36 41 32 30 26 25 20 20 33 33 31 31 33 31
45 50 54 58 58 60 64 62 60 48 50 49 48 49 47 57 59 63 57 60 65 55 61 64 64 63 56 49 41 40 38 38 38 27 27 24 26 26 29 35 35 32 31
45 49 53 53 49 45 39 40 38 45 45 44 50 55 57 56 53 46 44 56 55 57 54 48 56 59 53 42 36 36 41 41 40 32 33 36 27 27 20 15 17 23 30
42 35 29 29 32 31 32 33 39 37 37 41 51 51 54 55 49 42 49 49 44 37 42 45 50 52 47 39 36 36 38 42 42 40 37 43 29 24 21 19 24 26 28
29 32 35 30 29 19 25 33 34 35 44 52 53 53 57 50 49 47 43 37 35 41 41 38 31 35 46 41 38 40 39 36 41 44 39 39 33 26 20 21 16 14 16
23 21 27 23 19 23 30 35 42 51 56 55 53 54 52 49 48 48 45 43 50 54 58 43 38 38 38 41 41 45 46 44 39 43 41 35 27 20 22 23 11 25 16
Wind_Direction_500mb
327 332 328 328 320 326 331 332 332 327 288 264 262 271 271 254 246 250 306 318 318 338 334 321 312 308 305 295 275 263 256 258 260 259 257 251 253 257 260 255 253 251 252
335 333 332 335 332 331 340 337 332 325 317 283 270 287 293 273 240 251 262 280 318 324 328 327 319 299 290 294 282 272 260 257 259 261 260 253 250 252 254 256 254 252 250
349 335 332 338 343 344 340 335 332 323 319 303 283 286 274 122 165 201 277 316 323 326 333 333 328 313 301 294 292 285 268 261 256 258 262 260 251 249 251 255 256 251 250
1 356 351 357 357 350 348 349 351 345 328 313 297 229 171 163 145 277 321 327 328 335 339 343 333 321 307 303 299 296 281 265 254 255 260 264 262 254 251 252 254 256 248
12 10 8 2 359 357 1 3 3 3 360 352 127 147 152 163 288 358 316 317 321 320 323 327 328 324 320 312 308 300 294 279 266 258 258 259 266 265 257 253 252 250 250
11 11 14 5 0 6 14 16 14 9 10 30 140 152 148 127 40 15 351 333 325 319 313 316 324 321 323 315 315 304 314 270 267 266 260 262 261 264 262 258 250 247 247
358 4 8 4 0 6 16 22 19 19 29 73 147 184 202 227 18 349 333 325 319 320 316 303 312 321 326 328 325 299 336 322 294 285 281 268 282 273 258 253 249 248 246
336 350 1 2 357 3 15 24 30 28 22 26 29 353 267 248 256 275 3 346 332 322 322 316 304 316 315 315 320 292 301 318 339 320 301 292 270 277 256 251 238 242 239
316 337 353 359 353 0 14 23 28 27 32 26 24 30 357 339 334 277 322 352 345 332 325 322 320 312 310 304 300 295 270 313 336 303 324 317 311 293 262 268 223 224 225
299 321 344 355 349 351 4 12 15 20 26 22 29 21 4 333 321 324 320 329 349 341 325 316 309 320 321 304 290 285 274 284 299 344 297 323 333 279 250 250 198 195 213
283 301 332 350 350 341 359 11 3 4 8 13 17 16 10 7 354 324 321 338 333 359 333 320 312 320 331 323 301 288 283 287 294 303 310 329 334 334 310 216 214 200 197
287 293 321 336 348 345 339 358 9 353 349 352 356 354 357 355 346 335 326 333 336 331 351 330 324 321 315 310 299 298 289 296 307 304 298 291 293 298 303 299 323 216 214
300 301 309 318 326 335 335 328 338 348 343 329 331 333 335 332 334 328 321 326 329 332 330 335 326 327 323 306 297 291 283 289 306 301 288 284 274 274 324 285 315 322 305
305 314 307 309 318 313 329 323 315 317 323 332 323 320 324 323 317 318 316 319 320 323 325 327 318 318 312 316 302 296 291 287 300 290 288 287 280 263 269 280 286 280 280
309 308 316 300 304 309 299 299 301 304 304 307 307 308 311 315 308 305 301 304 305 303 310 320 314 318 316 304 301 294 294 290 284 288 276 273 270 269 268 259 259 264 260
313 308 313 305 301 300 301 299 298 299 295 295 295 295 297 301 301 300 295 289 288 290 287 302 310 312 300 303 296 286 295 285 282 280 274 270 261 258 260 261 258 260 258
321 314 315 311 304 300 298 295 296 299 295 296 295 295 294 294 293 294 292 285 280 277 281 293 300 307 305 295 296 289 285 285 278 283 278 274 269 257 254 256 258 255 255
321 317 314 312 312 308 303 298 299 298 295 295 295 293 292 291 288 290 287 284 280 276 273 280 288 294 298 294 293 285 284 276 276 268 268 268 265 257 251 251 256 254 255
324 321 319 319 319 319 316 314 309 306 303 302 299 297 296 294 289 285 283 281 279 274 270 271 278 285 292 295 284 281 284 283 271 270 264 260 266 267 259 257 251 250 253
323 328 327 325 325 323 323 323 318 315 316 306 302 300 298 292 292 285 281 277 272 273 267 265 269 275 283 288 286 274 275 282 282 272 265 274 273 269 264 253 248 253 259
324 328 324 325 324 321 316 312 321 324 321 315 318 312 306 302 301 288 283 285 277 274 263 260 263 267 271 275 278 282 271 276 276 268 274 261 259 262 264 266 251 248 251
323 320 320 316 314 311 315 316 320 326 327 329 332 335 317 307 302 286 282 294 272 268 262 260 264 267 271 270 273 275 275 271 277 275 271 244 284 262 271 258 248 250 266
312 311 313 316 312 314 331 337 327 324 330 338 343 338 333 328 322 309 303 299 287 255 260 267 267 261 266 267 277 276 268 269 273 280 277 282 294 272 253 253 270 267 268
316 326 330 326 321 328 333 332 335 334 334 335 335 334 333 331 329 319 311 307 293 270 269 280 272 260 257 258 267 273 272 267 266 269 270 277 294 276 278 263 296 282 269
334 330 326 338 348 338 337 340 343 338 333 333 330 326 328 321 324 323 315 294 289 284 271 281 265 258 251 250 248 266 266 266 268 268 270 273 282 277 263 275 291 309 286
354 6 358 3 5 3 356 353 346 339 331 327 326 328 331 329 320 321 318 305 289 294 287 277 281 257 247 245 238 247 251 253 265 274 267 267 277 266 274 279 255 311 297
Wind_Speed_850mb
14 17 24 24 23 27 32 30 29 21 12 14 17 17 17 11 7 4 5 7 11 17 23 30 34 33 29 29 33 34 41 47 48 47 46 46 45 44 45 45 47 44 43
19 20 24 24 25 25 33 34 33 23 18 15 16 17 18 12 10 8 5 5 11 21 26 33 31 27 28 28 29 34 36 39 44 47 47 46 47 49 48 47 47 49 46
22 22 24 26 26 28 32 35 25 22 18 15 19 19 7 0 6 5 4 11 13 15 24 27 25 21 20 20 25 28 32 35 37 41 45 44 46 50 53 53 51 48 50
22 21 25 23 25 32 35 29 27 21 16 15 12 9 10 8 4 1 6 12 17 21 26 25 21 22 23 23 25 28 29 31 37 42 43 45 49 49 52 54 55 53 51
26 28 27 27 28 34 33 31 27 26 20 14 2 17 17 7 1 3 7 10 17 24 27 26 22 22 23 23 23 25 25 29 32 38 45 53 53 51 55 61 58 58 54
28 32 33 29 29 31 32 30 28 24 22 12 13 20 14 6 2 5 9 14 18 21 24 21 22 20 22 20 21 18 17 23 28 36 39 46 55 60 54 52 57 60 62
25 31 36 34 30 29 32 33 30 27 21 11 12 15 11 7 4 9 15 19 20 22 24 22 19 17 17 17 17 6 12 12 17 25 34 41 33 56 54 54 54 58 62
22 27 34 36 30 25 25 33 31 30 30 25 15 3 8 14 16 8 22 28 26 26 24 19 15 15 15 16 16 14 13 12 19 18 29 25 33 39 47 45 48 52 56
19 24 32 36 30 23 22 27 32 31 28 25 25 18 8 10 33 5 15 30 30 29 24 20 16 14 16 18 16 15 13 13 20 26 22 23 19 25 39 37 41 41 47
18 19 28 33 29 22 21 23 26 27 29 26 19 18 14 17 12 22 29 29 27 28 25 19 17 17 19 18 16 15 17 20 20 20 18 26 28 14 16 21 37 38 27
18 18 24 28 26 21 22 22 21 22 24 28 25 23 23 20 15 28 36 47 27 24 20 23 18 16 17 13 12 14 18 20 20 20 21 14 20 31 9 29 35 32 32
20 22 26 25 27 26 18 18 23 20 22 22 23 25 27 24 25 27 35 40 46 29 23 18 17 17 16 13 13 17 16 16 22 24 21 20 18 17 28 2 9 31 38
28 26 30 27 25 27 22 20 23 27 25 22 23 26 28 25 26 28 34 40 45 40 28 19 23 21 18 16 18 18 16 20 21 22 20 23 20 21 22 20 18 19 16
22 24 29 26 25 26 25 19 22 29 31 26 26 31 32 26 29 29 32 37 46 43 38 35 22 26 28 25 23 24 20 20 23 19 18 18 16 15 17 18 20 23 25
22 25 26 27 29 29 28 28 30 31 32 31 32 34 37 33 34 36 37 35 36 45 52 43 34 30 26 29 24 22 24 23 22 21 21 18 20 15 14 15 23 26 25
23 26 27 29 31 33 34 34 35 35 40 39 41 45 46 46 46 42 40 41 42 42 50 47 41 37 34 31 26 29 27 25 24 23 24 25 25 25 24 24 24 26 25
25 29 29 30 31 32 31 36 39 41 43 44 44 48 52 51 55 54 51 48 50 50 55 54 43 37 35 31 29 28 29 27 26 23 23 22 21 21 20 21 20 23 25
30 33 33 34 35 36 36 39 45 47 50 53 56 57 60 58 60 60 59 56 56 55 59 62 54 44 38 34 34 31 25 31 30 24 23 23 23 23 23 25 25 24 20
34 35 37 39 39 41 43 44 50 55 57 60 63 63 67 67 70 70 70 68 61 58 58 62 61 52 47 38 35 33 31 28 30 30 28 26 24 24 24 25 25 24 22
38 39 40 43 44 45 46 50 55 64 67 66 61 62 65 72 89 86 78 80 70 63 62 61 62 57 52 44 38 37 35 30 25 21 22 27 28 28 32 33 32 32 31
42 44 48 49 49 49 49 49 54 57 61 59 58 58 54 60 61 57 61 70 64 59 61 65 62 62 58 49 43 36 41 32 30 26 25 20 20 33 33 31 31 33 31
45 50 54 58 58 60 64 62 60 48 50 49 48 49 47 57 59 63 57 60 65 55 61 64 64 63 56 49 41 40 38 38 38 27 27 24 26 26 29 35 35 32 31
45 49 53 53 49 45 39 40 38 45 45 44 50 55 57 56 53 46 44 56 55 57 54 48 56 59 53 42 36 36 41 41 40 32 33 36 27 27 20 15 17 23 30
42 35 29 29 32 31 32 33 39 37 37 41 51 51 54 55 49 42 49 49 44 37 42 45 50 52 47 39 36 36 38 42 42 40 37 43 29 24 21 19 24 26 28
29 32 35 30 29 19 25 33 34 35 44 52 53 53 57 50 49 47 43 37 35 41 41 38 31 35 46 41 38 40 39 36 41 44 39 39 33 26 20 21 16 14 16
23 21 27 23 19 23 30 35 42 51 56 55 53 54 52 49 48 48 45 43 50 54 58 43 38 38 38 41 41 45 46 44 39 43 41 35 27 20 22 23 11 25 16
Wind_Direction_850mb
327 332 328 328 320 326 331 332 332 327 288 264 262 271 271 254 246 250 306 318 318 338 334 321 312 308 305 295 275 263 256 258 260 259 257 251 253 257 260 255 253 251 252
335 333 332 335 332 331 340 337 332 325 317 283 270 287 293 273 240 251 262 280 318 324 328 327 319 299 290 294 282 272 260 257 259 261 260 253 250 252 254 256 254 252 250
349 335 332 338 343 344 340 335 332 323 319 303 283 286 274 122 165 201 277 316 323 326 333 333 328 313 301 294 292 285 268 261 256 258 262 260 251 249 251 255 256 251 250
1 356 351 357 357 350 348 349 351 345 328 313 297 229 171 163 145 277 321 327 328 335 339 343 333 321 307 303 299 296 281 265 254 255 260 264 262 254 251 252 254 256 248
12 10 8 2 359 357 1 3 3 3 360 352 127 147 152 163 288 358 316 317 321 320 323 327 328 324 320 312 308 300 294 279 266 258 258 259 266 265 257 253 252 250 250
11 11 14 5 0 6 14 16 14 9 10 30 140 152 148 127 40 15 351 333 325 319 313 316 324 321 323 315 315 304 314 270 267 266 260 262 261 264 262 258 250 247 247
358 4 8 4 0 6 16 22 19 19 29 73 147 184 202 227 18 349 333 325 319 320 316 303 312 321 326 328 325 299 336 322 294 285 281 268 282 273 258 253 249 248 246
336 350 1 2 357 3 15 24 30 28 22 26 29 353 267 248 256 275 3 346 332 322 322 316 304 316 315 315 320 292 301 318 339 320 301 292 270 277 256 251 238 242 239
316 337 353 359 353 0 14 23 28 27 32 26 24 30 357 339 334 277 322 352 345 332 325 322 320 312 310 304 300 295 270 313 336 303 324 317 311 293 262 268 223 224 225
299 321 344 355 349 351 4 12 15 20 26 22 29 21 4 333 321 324 320 329 349 341 325 316 309 320 321 304 290 285 274 284 299 344 297 323 333 279 250 250 198 195 213
283 301 332 350 350 341 359 11 3 4 8 13 17 16 10 7 354 324 321 338 333 359 333 320 312 320 331 323 301 288 283 287 294 303 310 329 334 334 310 216 214 200 197
287 293 321 336 348 345 339 358 9 353 349 352 356 354 357 355 346 335 326 333 336 331 351 330 324 321 315 310 299 298 289 296 307 304 298 291 293 298 303 299 323 216 214
300 301 309 318 326 335 335 328 338 348 343 329 331 333 335 332 334 328 321 326 329 332 330 335 326 327 323 306 297 291 283 289 306 301 288 284 274 274 324 285 315 322 305
305 314 307 309 318 313 329 323 315 317 323 332 323 320 324 323 317 318 316 319 320 323 325 327 318 318 312 316 302 296 291 287 300 290 288 287 280 263 269 280 286 280 280
309 308 316 300 304 309 299 299 301 304 304 307 307 308 311 315 308 305 301 304 305 303 310 320 314 318 316 304 301 294 294 290 284 288 276 273 270 269 268 259 259 264 260
313 308 313 305 301 300 301 299 298 299 295 295 295 295 297 301 301 300 295 289 288 290 287 302 310 312 300 303 296 286 295 285 282 280 274 270 261 258 260 261 258 260 258
321 314 315 311 304 300 298 295 296 299 295 296 295 295 294 294 293 294 292 285 280 277 281 293 300 307 305 295 296 289 285 285 278 283 278 274 269 257 254 256 258 255 255
321 317 314 312 312 308 303 298 299 298 295 295 295 293 292 291 288 290 287 284 280 276 273 280 288 294 298 294 293 285 284 276 276 268 268 268 265 257 251 251 256 254 255
324 321 319 319 319 319 316 314 309 306 303 302 299 297 296 294 289 285 283 281 279 274 270 271 278 285 292 295 284 281 284 283 271 270 264 260 266 267 259 257 251 250 253
323 328 327 325 325 323 323 323 318 315 316 306 302 300 298 292 292 285 281 277 272 273 267 265 269 275 283 288 286 274 275 282 282 272 265 274 273 269 264 253 248 253 259
324 328 324 325 324 321 316 312 321 324 321 315 318 312 306 302 301 288 283 285 277 274 263 260 263 267 271 275 278 282 271 276 276 268 274 261 259 262 264 266 251 248 251
323 320 320 316 314 311 315 316 320 326 327 329 332 335 317 307 302 286 282 294 272 268 262 260 264 267 271 270 273 275 275 271 277 275 271 244 284 262 271 258 248 250 266
312 311 313 316 312 314 331 337 327 324 330 338 343 338 333 328 322 309 303 299 287 255 260 267 267 261 266 267 277 276 268 269 273 280 277 282 294 272 253 253 270 267 268
316 326 330 326 321 328 333 332 335 334 334 335 335 334 333 331 329 319 311 307 293 270 269 280 272 260 257 258 267 273 272 267 266 269 270 277 294 276 278 263 296 282 269
334 330 326 338 348 338 337 340 343 338 333 333 330 326 328 321 324 323 315 294 289 284 271 281 265 258 251 250 248 266 266 266 268 268 270 273 282 277 263 275 291 309 286
354 6 358 3 5 3 356 353 346 339 331 327 326 328 331 329 320 321 318 305 289 294 287 277 281 257 247 245 238 247 251 253 265 274 267 267 277 266 274 279 255 311 297